ORBCOMM FM111 [-] (40089 NORAD) Tracking and Keplerian Element Data

This shows tracking and keplerian element data for the satellite.

Feedback or suggestion? Click here.




ElementValue
Catalog40089
NameORBCOMM FM111 [-]
Epoch Orbit21676
Epoch Day202.28486673
Epoch Year2018
RAAN124.8979
Inclination47.0069
Eccentricity0.0034902
Argument of Perigee124.8709
Mean Anonmoly235.5474
Mean Motion14.77048169
Decay Rate-6.4E-07
L11 40089U 14040D 18202.28486673 -.00000064 00000-0 20136-4 0 9994
L22 40089 47.0069 124.8979 0034902 124.8709 235.5474 14.77048169216767

Live tracking and technical data element details for ORBCOMM FM111 [-] (NORAD 40089). ORBCOMM FM111 [-] can be tracked NOW for your location showing map with azimuth and elevation plus other details from your city location.

Track the satellite on the map from your city or location and see movement details for azimuth, elevation, latitude, longitude, range, height, and movement on the map or in text.







IsCatalogInMostPopularTable: catalog: 40089, numindb: 52
Update: records affected: 1



GetName: 40089 ORBCOMM FM111 [-]

Hit Count: updated at: Mon, 23 Jul 2018 07:57:36 GMT